Location: *
(49.6619°S, 177.4603°W)
Time: 12:15:45
(UTC+00:00)

Cosmos 2263 Rocket - Pass Details

Date: 31 January 2023
Orbit: 824 x 847 km, 71.0° (Epoch: 29 March)

Event Time Altitude Azimuth Distance (km) Brightness Sun altitude
Rises 10:02:58 0° 295° (WNW) 3,394 5.4 -17.9°
Reaches altitude 10° 10:05:45 10° 283° (WNW) 2,470 4.8 -18.1°
Maximum altitude 10:10:36 28° 224° (SW) 1,546 4.3 -18.5°
Drops below altitude 10° 10:15:31 10° 165° (SSE) 2,502 5.3 -18.8°
Sets 10:18:22 0° 153° (SSE) 3,445 5.9 -19.0°
